Location: Unspecified
(52.4292°N, 19.3359°E)
Time: 23:44:32
(UTC+02:00)

SR - Pass Details

Date: 01 June 2024
Orbit: 580 x 858 km, 66.7° (Epoch: 12 June)

Event Time Altitude Azimuth Distance (km) Brightness Sun altitude
Rises 00:59:29 0° 317° (NW) 2,868 ? -15.4°
Reaches altitude 10° 01:01:51 10° 310° (NW) 1,936 ? -15.3°
Maximum altitude 01:05:54 41° 240° (WSW) 849 ? -15.3°
Enters shadow 01:07:34 28° 191° (S) 1,106 ? -15.2°
Drops below altitude 10° 01:09:52 10° 170° (S) 1,893 - -15.2°
Sets 01:12:10 0° 163° (SSE) 2,795 - -15.2°
